     2              OBSERVATION DATA    GPS                 RINEX VERSION / TYPE
teqc 1997Jul24 19970902 21:05:34UTC                         PGM / RUN BY / DATE
                                                            COMMENT
BIT 2 OF LLI FLAGS DATA COLLECTED UNDER A-S CONDITION       COMMENT
BIT 2 OF LLI FLAGS DATA COLLECTED UNDER A-S CONDITION       COMMENT
Original Marker Name: MONU.55474                            COMMENT
Campaign Name: Salt. Tr. Crust. Monit. May-Jun 1986         COMMENT
4-Character Station Name: MONU                              COMMENT
6-Character Antenna Code: TI4100                            COMMENT
Vertical Measurement Point: PAE                             COMMENT
Vertical Offset to Rinex Ref. Point: 0.0000                 COMMENT
Radial Measurement Point: RRP                               COMMENT
Radial Offset to Rinex Ref. Point: 0.0000                   COMMENT
Antenna Height from Field Measurement: 1.4985 m             COMMENT
Original XYZ: -1876884.2491 -3661537.3947 2579350.2487      COMMENT
New XYZ position is based on association with SCEC monument COMMENT
E1C8W5H0+0011. Position of that monument is believed to be  COMMENT
valid to within 1 m horizontally; vertical accuracy         COMMENT
should be no worse than 3-times this value.                 COMMENT
                                                            COMMENT
Revised Rinex header created by UCSD GPS archive for        COMMENT
GSAC on 10-Apr-1999 (1999:100) 06:31:12 GMT                 COMMENT
For assistance contact dagnew@ucsd.edu or hjohnson@ucsd.edu COMMENT
                                                            COMMENT
MONUMENT PEAK NCMN 1983                                     MARKER NAME
05 NATIONAL GEODETIC SURVEY                                 OBSERVER / AGENCY
UT-33 TI 4100 1.0                                           REC # / TYPE / VERS
4091 TI 4100                                                ANT # / TYPE
 -2386290.0000 -4802346.0000  3444884.0000                  APPROX POSITION XYZ
        1.4985        0.0000        0.0000                  ANTENNA: DELTA H/E/N
     1     1     0                                          WAVELENGTH FACT L1/2
     4    P1    P2    L1    L2                              # / TYPES OF OBSERV
     6                                                      INTERVAL
  1986     6    19     4     9   59.000000                  TIME OF FIRST OBS
  1986     6    19     4    27   59.000000                  TIME OF LAST OBS
     0                                                      # OF SATELLITES
                                                            END OF HEADER
 86  6 19  4  9 59.0800000  0  3G12G13G 7
  21632357.973    21632362.521    46005182.947 9 -62394387.689 9
  22196726.488    22196729.328    74826961.584 9 -84152385.079 8
  24691697.348    24691701.220    15404672.105 9 -39943651.570 9
 86  6 19  4 10  5.0800000  0  3G12G13G 7
  21635069.889    21635074.052    46019432.523 9 -62383284.123 8
  22198548.978    22198549.600    74836532.780 9 -84144927.018 8
                  24691004.693                   -39946501.736 7
 86  6 19  4 10 11.0800000  0  3G12G13G 7
  21637785.160    21637789.347    46033701.456 9 -62372165.481 9
  22200369.721    22200371.932    74846105.292 9 -84137467.909 8
  24690312.488    24690314.417    15364596.897 7 -39949325.626 7
 86  6 19  4 10 17.0800000  0  3G12G13G 7
  21640505.610    21640507.704    46047989.633 9 -62361031.830 8
  22202192.513    22202193.779    74855679.093 9 -84130007.811 8
  24689629.951    24689632.663    15361010.622 9 -39952120.136 9
 86  6 19  4 10 23.0800000  0  3G12G13G 7
  21643228.071    21643231.509    46062296.999 9 -62349883.239 9
  22204015.461    22204016.198    74865254.082 9 -84122546.783 8
  24688954.214    24688956.654    15357460.681 9 -39954886.715 9
 86  6 19  4 10 29.0800000  0  3G12G13G 7
  21645954.652    21645956.987    46076623.641 9 -62338719.619 9
  22205836.864    22205837.413    74874830.357 8 -84115084.751 8
  24688284.817    24688286.812    15353941.599 9 -39957628.861 9
 86  6 19  4 10 35.0800000  0  3G12G13G 7
  21648683.730    21648687.168    46090969.627 9 -62327540.946 8
  22207659.169    22207661.779    74884407.872 9 -84107621.757 8
  24687620.368    24687623.181    15350449.591 9 -39960349.903 8
 86  6 19  4 10 41.0800000  0  3G12G13G 7
  21651417.816    21651420.435    46105334.639 9 -62316347.426 8
  22209482.045    22209485.258    74893986.549 8 -84100157.859 8
  24686960.472    24686962.696    15346981.175 9 -39963052.570 9
 86  6 19  4 10 47.0800000  0  3G12G13G 7
  21654154.585    21654157.559    46119718.774 9 -62305139.000 8
  22211304.721    22211307.216    74903566.521 9 -84092692.950 8
  24686304.466    24686306.550    15343534.203 9 -39965738.523 8
 86  6 19  4 10 53.0800000  0  3G12G13G 7
  21656896.338    21656898.344    46134122.120 9 -62293915.617 9
  22213127.827    22213130.754    74913147.811 9 -84085226.995 8
  24685652.670    24685655.231    15340107.482 9 -39968408.688 8
 86  6 19  4 10 59.0800000  0  3G12G13G 7
  21659640.304    21659641.936    46148544.558 9 -62282677.355 9
  22214951.949    22214954.718    74922730.290 9 -84077760.126 8
  24685005.043    24685006.387    15336702.342 9 -39971062.051 8
 86  6 19  4 11  5.0800000  0  3G12G13G 7
  21662388.867    21662390.749    46162986.016 9 -62271424.281 9
  22216775.268    22216777.994    74932313.953 9 -84070292.358 8
                  24684363.283                   -39973694.475 8
 86  6 19  4 11 11.0800000  0  3G12G13G 7
  21665140.271    21665142.411    46177446.503 9 -62260156.357 8
  22218597.874    22218602.702    74941898.803 9 -84062823.628 8
  24683726.901    24683727.276    15296902.226 6 -39976300.441 8
 86  6 19  4 11 17.0800000  0  3G12G13G 7
  21667894.879    21667897.441    46191926.046 9 -62248873.612 8
  22220423.467    22220425.723    74951484.822 9 -84055354.005 8
  24683097.280    24683097.995    15293595.624 9 -39978877.019 9
 86  6 19  4 11 23.0800000  0  3G12G13G 7
  21670654.333    21670656.522    46206424.494 9 -62237576.120 8
  22222248.264    22222250.633    74961072.035 9 -84047883.458 7
  24682474.908    24682475.595    15290323.970 9 -39981425.972 9
 86  6 19  4 11 29.0800000  0  3G12G13G 7
  21673416.748    21673419.550    46220941.916 9 -62226263.849 8
  22224072.913    22224074.165    74970660.440 9 -84040411.981 8
  24681857.803    24681858.784    15287084.038 9 -39983950.591 8
 86  6 19  4 11 35.0800000  0  3G12G13G 7
  21676182.852    21676185.006    46235478.401 9 -62214936.715 8
  22225897.751    22225898.960    74980250.149 9 -84032939.467 8
  24681246.621    24681248.010    15283871.073 9 -39986454.192 8
 86  6 19  4 11 41.0800000  0  3G12G13G 7
  21678953.025    21678955.182    46250033.853 9 -62203594.808 9
  22227722.058    22227724.068    74989841.057 9 -84025466.028 8
  24680639.741    24680640.241    15280681.767 9 -39988939.371 8
 86  6 19  4 11 47.0800000  0  3G12G13G 7
  21681726.341    21681728.315    46264608.104 9 -62192238.248 9
  22229548.341    22229549.063    74999433.082 9 -84017991.727 8
  24680036.487    24680037.953    15277513.813 9 -39991407.902 9
 86  6 19  4 11 53.0800000  0  3G12G13G 7
  21684502.528    21684505.758    46279201.282 9 -62180866.955 9
  22231373.078    22231375.318    75009026.302 9 -84010516.485 8
  24679437.998    24679439.473    15274366.164 9 -39993860.616 9
 86  6 19  4 11 59.0800000  0  3G12G13G 7
  21687283.280    21687285.666    46293813.331 9 -62169480.951 8
  22233198.702    22233200.083    75018620.759 8 -84003040.286 8
  24678842.757    24678844.996    15271240.274 9 -39996296.377 8
 86  6 19  4 12  5.0800000  0  3G12G13G 7
  21690066.778    21690069.620    46308444.209 9 -62158080.259 8
  22235024.569    22235026.765    75028216.309 9 -83995563.210 7
                  24678253.081                   -39998710.833 8
 86  6 19  4 12 11.0800000  0  3G12G13G 7
  21692855.626    21692857.916    46323093.969 9 -62146664.874 8
  22236852.139    22236852.015    75037813.157 9 -83988085.148 8
  24677671.637    24677671.666    15231706.880 9 -40001098.494 8
 86  6 19  4 12 17.0800000  0  3G12G13G 7
  21695646.567    21695649.125    46337762.532 9 -62135234.809 7
  22238676.560    22238680.304    75047411.303 9 -83980606.068 8
  24677094.060    24677095.412    15228680.639 9 -40003456.735 9
 86  6 19  4 12 23.0800000  0  3G12G13G 7
  21698441.457    21698443.234    46352449.780 9 -62123790.217 8
  22240504.847    22240505.555    75057010.575 9 -83973126.124 8
  24676524.053    24676527.189    15225689.562 9 -40005787.441 8
 86  6 19  4 12 29.0800000  0  3G12G13G 7
  21701240.145    21701241.798    46367155.749 9 -62112331.023 9
  22242331.257    22242332.438    75066610.961 9 -83965645.296 8
  24675961.195    24675963.835    15222729.866 9 -40008094.095 9
 86  6 19  4 12 35.0800000  0  3G12G13G 7
  21704041.904    21704043.925    46381880.554 9 -62100857.153 8
  22244157.625    22244160.037    75076212.648 9 -83958163.462 8
  24675402.966    24675404.403    15219796.275 9 -40010379.998 9
 86  6 19  4 12 41.0800000  0  3G12G13G 7
  21706846.153    21706849.398    46396624.020 9 -62089368.734 9
  22245985.696    22245986.919    75085815.512 9 -83950680.709 8
  24674849.337    24674851.018    15216886.335 9 -40012647.483 9
 86  6 19  4 12 47.0800000  0  3G12G13G 7
  21709655.851    21709659.909    46411386.065 9 -62077865.847 7
  22247812.851    22247815.549    75095419.453 8 -83943197.130 7
  24674299.384    24674300.459    15213997.670 9 -40014898.387 8
 86  6 19  4 12 53.0800000  0  3G12G13G 7
  21712469.223    21712471.700    46426166.739 9 -62066348.440 9
  22249640.822    22249642.460    75105024.636 9 -83935712.557 7
  24673753.446    24673755.736    15211129.296 9 -40017133.472 8
 86  6 19  4 12 59.0800000  0  3G12G13G 7
  21715285.888    21715287.199    46440966.046 9 -62054816.511 8
  22251468.435    22251471.605    75114631.024 8 -83928227.075 8
  24673212.366    24673214.111    15208282.972 9 -40019351.392 8
 86  6 19  4 13  5.0800000  0  3G12G13G 7
  21718105.203    21718107.692    46455783.979 9 -62043270.072 7
  22253296.836    22253298.974    75124238.487 9 -83920740.738 9
                  24672677.948                   -40021547.603 8
 86  6 19  4 13 11.0800000  0  3G12G13G 7
  21720928.394    21720930.980    46470620.460 9 -62031709.185 8
  22255124.676    22255128.118    75133847.114 9 -83913253.488 8
  24672147.330    24672147.620    15169035.735 7 -40023716.764 8
 86  6 19  4 13 17.0800000  0  3G12G13G 7
  21723755.499    21723757.433    46485475.571 9 -62020133.773 8
  22256953.634    22256956.919    75143456.899 9 -83905765.343 8
  24671623.145    24671624.184    15166289.829 9 -40025856.433 9
 86  6 19  4 13 23.0800000  0  3G12G13G 7
  21726585.676    21726586.886    46500349.097 9 -62008544.012 8
  22258783.065    22258785.547    75153067.783 9 -83898276.347 8
  24671107.249    24671109.468    15163578.978 9 -40027968.791 8
 86  6 19  4 13 29.0800000  0  3G12G13G 7
  21729419.930    21729420.560    46515241.161 9 -61996939.819 9
  22260611.981    22260615.063    75162679.823 9 -83890786.460 8
  24670597.470    24670599.558    15160898.856 9 -40030057.198 8
 86  6 19  4 13 35.0800000  0  3G12G13G 7
  21732256.037    21732258.717    46530151.663 9 -61985321.243 8
  22262441.911    22262444.723    75172292.943 9 -83883295.704 8
  24670092.421    24670094.525    15158245.238 9 -40032124.941 9
 86  6 19  4 13 41.0800000  0  3G12G13G 7
  21735097.775    21735099.671    46545080.627 9 -61973688.287 9
  22264270.883    22264272.292    75181907.273 9 -83875804.031 8
  24669591.464    24669594.197    15155615.083 9 -40034174.418 9
 86  6 19  4 13 47.0800000  0  3G12G13G 7
  21737942.440    21737944.361    46560027.862 9 -61962041.099 8
  22266102.017    22266102.553    75191522.748 9 -83868311.430 8
  24669094.390    24669096.715    15153006.147 9 -40036207.359 8
 86  6 19  4 13 53.0800000  0  3G12G13G 7
  21740790.071    21740791.655    46574993.509 9 -61950379.555 8
  22267931.061    22267932.929    75201139.430 9 -83860817.919 8
  24668602.205    24668605.782    15150417.503 9 -40038224.477 9
 86  6 19  4 13 59.0800000  0  3G12G13G 7
  21743641.988    21743644.163    46589977.707 9 -61938703.565 8
  22269761.992    22269763.846    75210757.344 9 -83853323.422 8
  24668114.068    24668116.845    15147851.193 9 -40040224.187 9
 86  6 19  4 14  5.0800000  0  3G12G13G 7
  21746497.069    21746497.753    46604980.076 9 -61927013.415 8
  22271591.279    22271592.705    75220376.309 9 -83845828.144 8
                  24667634.096                   -40042201.939 8
 86  6 19  4 14 11.0800000  0  3G12G13G 7
  21749355.410    21749356.083    46620000.752 8 -61915308.986 8
  22273422.600    22273423.765    75229996.455 9 -83838331.914 8
  24667155.218    24667157.549    15108888.069 9 -40044152.322 8
 86  6 19  4 14 17.0800000  0  3G12G13G 7
  21752216.116    21752217.406    46635039.808 9 -61903590.255 7
  22275253.861    22275254.598    75239617.839 9 -83830834.735 8
  24666685.862    24666689.082    15106422.884 9 -40046073.257 8
 86  6 19  4 14 23.0800000  0  3G12G13G 7
  21755081.834    21755083.506    46650097.192 9 -61891857.241 7
  22277084.809    22277086.689    75249240.348 9 -83823336.684 7
  24666224.392    24666225.901    15103992.671 9 -40047966.932 9
 86  6 19  4 14 29.0800000  0  3G12G13G 7
  21757950.661    21757952.884    46665172.808 9 -61880110.005 7
  22278915.940    22278917.008    75258864.040 9 -83815837.688 8
  24665767.292    24665768.293    15101592.866 9 -40049836.916 8
 86  6 19  4 14 35.0800000  0  3G12G13G 7
  21760823.476    21760824.076    46680266.703 9 -61868348.524 6
  22280747.761    22280748.727    75268488.810 9 -83808337.873 8
  24665314.900    24665318.378    15099219.170 9 -40051686.546 8
 86  6 19  4 14 41.0800000  0  3G12G13G 7
  21763699.481    21763700.698    46695378.884 9 -61856572.800 8
  22282579.238    22282580.618    75278114.800 9 -83800837.086 8
  24664867.265    24664870.134    15096868.889 9 -40053517.931 8
 86  6 19  4 14 47.0800000  0  3G12G13G 7
  21766578.001    21766580.154    46710509.186 9 -61844782.957 8
  22284411.644    22284412.310    75287741.911 9 -83793335.450 8
  24664424.461    24664427.567    15094539.831 9 -40055332.784 9
 86  6 19  4 14 53.0800000  0  3G12G13G 7
  21769460.667    21769463.031    46725657.708 9 -61832978.918 8
  22286243.293    22286244.544    75297370.198 9 -83785832.881 9
  24663984.848    24663987.437    15092231.165 9 -40057131.740 9
 86  6 19  4 14 59.0800000  0  3G12G13G 7
  21772346.268    21772348.960    46740824.357 9 -61821160.757 8
  22288076.184    22288076.378    75306999.526 9 -83778329.503 8
  24663550.292    24663551.666    15089944.965 9 -40058913.194 8
 86  6 19  4 15  5.0800000  0  3G12G13G 7
  21775236.661    21775238.426    46756009.065 9 -61809328.527 7
  22289909.265    22289910.073    75316629.903 9 -83770825.319 7
                  24663121.689                   -40060672.102 8
 86  6 19  4 15 11.0800000  0  3G12G13G 7
  21778128.447    21778131.247    46771211.772 9 -61797482.266 8
  22291741.943    22291742.165    75326261.352 9 -83763320.294 7
  24662697.300    24662701.343    15051257.913 8 -40062403.372 9
 86  6 19  4 15 17.0800000  0  3G12G13G 7
  21781025.972    21781027.457    46786432.689 9 -61785621.815 9
  22293575.465    22293575.000    75335894.081 9 -83755814.276 8
  24662282.584    24662284.022    15049073.935 9 -40064105.174 8
 86  6 19  4 15 23.0800000  0  3G12G13G 7
  21783925.841    21783927.919    46801671.681 9 -61773747.276 8
  22295408.830    22295407.550    75345528.014 9 -83748307.303 7
  24661873.449    24661875.224    15046924.776 9 -40065779.841 8
 86  6 19  4 15 29.0800000  0  3G12G13G 7
  21786829.208    21786832.020    46816928.579 9 -61761858.794 9
  22297241.781    22297241.901    75355163.056 9 -83740799.477 8
  24661470.861    24661470.825    15044805.811 9 -40067430.965 8
 86  6 19  4 15 35.0800000  0  3G12G13G 7
  21789735.771    21789739.355    46832203.428 9 -61749956.313 9
  22299075.976    22299076.599    75364799.203 9 -83733290.786 8
  24661072.286    24661074.447    15042712.789 9 -40069061.892 8
 86  6 19  4 15 41.0800000  0  3G12G13G 7
  21792646.206    21792650.135    46847496.409 9 -61738039.709 8
  22300909.199    22300908.832    75374436.619 9 -83725781.114 8
  24660678.904    24660680.170    15040643.222 9 -40070674.554 9
 86  6 19  4 15 47.0800000  0  3G12G13G 7
  21795560.213    21795562.773    46862807.217 9 -61726109.212 9
  22302742.764    22302744.014    75384075.165 9 -83718270.563 8
  24660289.337    24660290.196    15038594.696 9 -40072270.799 8
 86  6 19  4 15 53.0800000  0  3G12G13G 7
  21798477.450    21798479.845    46878135.854 9 -61714164.816 9
  22304577.302    22304578.025    75393714.800 9 -83710759.153 8
  24659903.039    24659903.440    15036566.533 9 -40073851.182 8
 86  6 19  4 15 59.0800000  0  3G12G13G 7
  21801396.901    21801399.753    46893482.476 9 -61702206.411 9
  22306411.527    22306413.667    75403355.583 9 -83703246.853 8
  24659521.542    24659522.808    15034561.187 9 -40075413.790 9
 86  6 19  4 16  5.0800000  0  3G12G13G 7
  21804320.100    21804324.633    46908846.959 9 -61690234.088 9
  22308246.308    22308247.587    75412997.441 9 -83695733.724 7
                  24659146.162                   -40076953.637 8
 86  6 19  4 16 11.0800000  0  3G12G13G 7
  21807247.748    21807251.704    46924229.201 9 -61678247.921 9
  22310081.434    22310081.168    75422640.280 9 -83688219.808 6
  24658777.706    24658777.280    14996156.642 8 -40078465.625 9
 86  6 19  4 16 17.0800000  0  3G12G13G 7
  21810178.785    21810181.687    46939629.373 9 -61666247.791 9
  22311916.788    22311917.610    75432284.312 9 -83680704.991 6
  24658414.688    24658415.435    14994254.104 9 -40079948.130 9
 86  6 19  4 16 23.0800000  0  3G12G13G 7
  21813112.418    21813115.908    46955047.380 9 -61654233.752 9
  22313752.342    22313752.965    75441929.493 9 -83673189.256 8
  24658059.248    24658060.619    14992386.158 9 -40081403.677 9
 86  6 19  4 16 29.0800000  0  3G12G13G 7
  21816049.834    21816053.194    46970483.063 9 -61642205.947 8
  22315588.556    22315588.778    75451575.841 9 -83665672.626 7
  24657709.575    24657710.400    14990548.056 9 -40082835.951 9
 86  6 19  4 16 35.0800000  0  3G12G13G 7
  21818989.438    21818992.830    46985936.498 9 -61630164.309 9
  22317422.664    22317424.158    75461223.302 9 -83658155.105 7
  24657365.139    24657364.911    14988735.813 9 -40084248.078 9
 86  6 19  4 16 41.0800000  0  3G12G13G 7
  21821932.753    21821938.195    47001407.672 9 -61618108.857 9
  22319259.092    22319260.916    75470871.922 9 -83650636.708 8
  24657024.086    24657024.900    14986946.827 9 -40085642.092 9
 86  6 19  4 16 47.0800000  0  3G12G13G 7
  21824881.238    21824884.164    47016896.532 9 -61606039.611 9
  22321095.433    22321096.869    75480521.640 9 -83643117.444 7
  24656688.666    24656687.452    14985178.835 9 -40087019.743 8
 86  6 19  4 16 53.0800000  0  3G12G13G 7
  21827831.028    21827835.794    47032403.017 9 -61593956.637 9
  22322931.904    22322933.742    75490172.452 9 -83635597.326 8
  24656355.197    24656354.778    14983431.314 9 -40088381.442 8
 86  6 19  4 16 59.0800000  0  3G12G13G 7
  21830785.687    21830790.213    47047927.281 9 -61581859.807 9
  22324767.932    22324768.582    75499824.410 9 -83628076.314 6
  24656026.744    24656027.742    14981706.876 9 -40089725.158 9
 86  6 19  4 17  5.0800000  0  3G12G13G 7
  21833742.946    21833748.073    47063469.164 9 -61569749.249 9
  22326607.120    22326606.368    75509477.557 9 -83620554.374 7
                  24655703.804                   -40091045.705 8
 86  6 19  4 17 11.0800000  0  3G12G13G 7
  21836703.410    21836708.900    47079028.598 9 -61557625.013 8
  22328443.348    22328443.239    75519131.734 9 -83613031.639 8
  24655389.712    24655389.100    14943576.060 9 -40092338.124 9
 86  6 19  4 17 17.0800000  0  3G12G13G 7
  21839668.516    21839672.994    47094605.568 9 -61545487.111 9
  22330280.218    22330280.597    75528786.879 9 -83605508.148 7
  24655081.162    24655080.675    14941955.096 9 -40093601.217 9
 86  6 19  4 17 23.0800000  0  3G12G13G 7
  21842636.217    21842640.954    47110200.199 9 -61533335.451 9
  22332118.334    22332118.326    75538443.103 9 -83597983.797 8
  24654778.472    24654779.260    14940368.163 9 -40094837.399 9
 86  6 19  4 17 29.0800000  0  3G12G13G 7
  21845606.513    21845611.608    47125812.293 9 -61521170.187 9
  22333955.749    22333956.629    75548100.458 9 -83590458.594 7
  24654482.817    24654482.457    14938811.473 9 -40096050.405 8
 86  6 19  4 17 35.0800000  0  3G12G13G 7
  21848580.865    21848585.666    47141441.764 9 -61508991.372 8
  22335793.893    22335794.473    75557758.902 9 -83582932.531 7
  24654190.945    24654191.081    14937280.354 9 -40097243.482 9
 86  6 19  4 17 41.0800000  0  3G12G13G 7
  21851558.039    21851562.053    47157088.680 9 -61496798.969 8
  22337632.181    22337633.061    75567418.484 9 -83575405.574 7
  24653904.110    24653903.516    14935772.339 9 -40098418.562 9
 86  6 19  4 17 47.0800000  0  3G12G13G 7
  21854539.624    21854543.362    47172753.144 9 -61484592.898 8
  22339469.508    22339472.363    75577079.256 9 -83567877.693 7
  24653621.183    24653621.117    14934285.350 9 -40099577.251 8
 86  6 19  4 17 53.0800000  0  3G12G13G 7
  21857523.510    21857528.046    47188434.942 9 -61472373.319 9
  22341308.813    22341310.695    75586741.025 9 -83560349.042 8
  24653341.753    24653342.298    14932818.799 9 -40100720.026 9
 86  6 19  4 17 59.0800000  0  3G12G13G 7
  21860511.380    21860515.182    47204134.190 9 -61460140.142 8
  22343146.972    22343149.541    75596403.968 9 -83552819.475 7
  24653066.222    24653067.131    14931375.660 9 -40101844.544 7
 86  6 19  4 18  5.0800000  0  3G12G13G 7
  21863502.291    21863505.436    47219850.892 9 -61447893.350 9
  22344986.276    22344987.098    75606068.073 9 -83545288.971 7
                  24652798.298                   -40102945.459 8
 86  6 19  4 18 11.0800000  0  3G12G13G 7
  21866496.228    21866499.331    47235584.896 9 -61435633.091 8
  22346825.236    22346825.947    75615733.222 9 -83537757.687 8
  24652536.377    24652535.952    14893532.274 9 -40104018.106 8
 86  6 19  4 18 17.0800000  0  3G12G13G 7
  21869493.267    21869497.203    47251336.111 9 -61423359.413 9
  22348665.198    22348667.250    75625399.452 9 -83530225.563 7
  24652280.491    24652281.365    14892193.216 9 -40105061.520 9
 86  6 19  4 18 23.0800000  0  3G12G13G 7
  21872494.320    21872497.497    47267104.674 9 -61411072.233 8
  22350504.530    22350506.042    75635066.838 9 -83522692.528 7
  24652032.563    24652034.559    14890888.431 9 -40106078.243 9
 86  6 19  4 18 29.0800000  0  3G12G13G 7
  21875498.046    21875501.626    47282890.559 9 -61398771.544 9
  22352344.018    22352345.800    75644735.317 9 -83515158.643 7
  24651790.002    24651791.055    14889613.158 9 -40107071.960 8
 86  6 19  4 18 35.0800000  0  3G12G13G 7
  21878506.171    21878509.217    47298693.558 9 -61386457.516 9
  22354184.940    22354184.877    75654404.776 9 -83507624.004 7
  24651551.941    24651552.876    14888363.278 9 -40108045.887 9
 86  6 19  4 18 41.0800000  0  3G12G13G 7
  21881516.628    21881518.457    47314513.820 9 -61374130.047 8
  22356024.473    22356024.379    75664075.398 9 -83500088.445 7
  24651318.443    24651319.744    14887136.317 9 -40109001.965 9
 86  6 19  4 18 47.0800000  0  3G12G13G 7
  21884530.227    21884532.752    47330351.388 9 -61361789.082 8
  22357865.207    22357864.399    75673747.107 9 -83492552.034 9
  24651089.196    24651089.632    14885930.316 9 -40109941.707 9
 86  6 19  4 18 53.0800000  0  3G12G13G 7
  21887547.953    21887550.464    47346206.096 9 -61349434.781 9
  22359706.012    22359706.422    75683419.861 9 -83485014.819 8
  24650863.497    24650864.283    14884744.894 9 -40110865.413 8
 86  6 19  4 18 59.0800000  0  3G12G13G 7
  21890568.222    21890570.813    47362077.883 9 -61337067.153 8
  22361547.577    22361546.926    75693093.618 9 -83477476.836 7
  24650641.913    24650643.631    14883583.086 9 -40111770.719 8
 86  6 19  4 19  5.0800000  0  3G12G13G 7
  21893592.775    21893593.412    47377966.793 9 -61324686.190 9
  22363388.641    22363389.265    75702768.540 9 -83469937.929 7
                  24650428.012                   -40112652.093 8
 86  6 19  4 19 11.0800000  0  3G12G13G 7
  21896619.424    21896621.224    47393872.777 9 -61312291.917 8
  22365229.568    22365229.838    75712444.565 9 -83462398.158 9
  24650218.877    24650222.335    14846015.468 9 -40113504.977 8
 86  6 19  4 19 17.0800000  0  3G12G13G 7
  21899649.481    21899651.332    47409795.771 9 -61299884.389 9
  22367071.122    22367073.001    75722121.647 9 -83454857.568 8
  24650017.052    24650018.534    14844958.419 9 -40114328.644 8
 86  6 19  4 19 23.0800000  0  3G12G13G 7
  21902682.343    21902683.767    47425735.868 9 -61287463.543 8
  22368912.601    22368913.484    75731799.902 9 -83447316.071 8
  24649822.313    24649823.994    14843935.364 9 -40115125.817 8
 86  6 19  4 19 29.0800000  0  3G12G13G 7
  21905719.173    21905720.600    47441692.867 9 -61275029.519 8
  22370754.808    22370756.588    75741479.174 9 -83439773.763 7
  24649632.909    24649635.541    14842941.518 9 -40115900.242 9
 86  6 19  4 19 35.0800000  0  3G12G13G 7
  21908758.128    21908760.357    47457666.816 9 -61262582.298 8
  22372596.516    22372597.801    75751159.441 9 -83432230.704 8
  24649448.901    24649451.647    14841972.974 9 -40116654.962 9
 86  6 19  4 19 41.0800000  0  3G12G13G 7
  21911801.979    21911802.824    47473657.737 9 -61250121.839 9
  22374439.211    22374440.898    75760840.781 9 -83424686.806 8
  24649269.221    24649271.473    14841027.307 9 -40117391.846 8
 86  6 19  4 19 47.0800000  0  3G12G13G 7
  21914847.172    21914850.085    47489665.751 9 -61237648.068 8
  22376281.569    22376282.941    75770523.341 9 -83417141.945 8
  24649093.275    24649095.293    14840102.716 9 -40118112.310 8
 86  6 19  4 19 53.0800000  0  3G12G13G 7
  21917896.601    21917899.301    47505690.626 9 -61225161.162 9
  22378124.801    22378125.671    75780206.886 9 -83409596.325 9
  24648921.529    24648923.053    14839198.736 9 -40118816.719 9
 86  6 19  4 19 59.0800000  0  3G12G13G 7
  21920948.404    21920952.110    47521732.290 9 -61212661.177 8
  22379967.464    22379968.098    75789891.426 9 -83402049.932 9
  24648753.539    24648756.373    14838318.596 9 -40119502.551 9
 86  6 19  4 20  5.0800000  0  3G12G13G 7
  21924005.302    21924007.034    47537790.815 9 -61200148.044 8
  22381809.897    22381813.150    75799577.090 9 -83394502.659 8
                  24648594.372                   -40120164.201 8
 86  6 19  4 20 11.0800000  0  3G12G13G 7
  21927063.705    21927067.176    47553866.191 9 -61187621.783 8
  22383653.665    22383655.626    75809263.797 9 -83386954.580 9
  24648438.340    24648440.311    14801033.565 9 -40120797.242 8
 86  6 19  4 20 17.0800000  0  3G12G13G 7
  21930125.795    21930128.637    47569958.315 9 -61175082.466 8
  22385496.934    22385498.528    75818951.506 9 -83379405.706 8
  24648290.413    24648291.954    14800258.417 9 -40121401.245 8
 86  6 19  4 20 23.0800000  0  3G12G13G 7
  21933191.658    21933194.126    47586067.238 9 -61162530.063 8
  22387340.057    22387342.210    75828640.304 9 -83371855.988 9
  24648150.306    24648151.010    14799517.507 9 -40121978.969 9
 86  6 19  4 20 29.0800000  0  3G12G13G 7
  21936260.013    21936262.263    47602192.949 9 -61149964.574 8
  22389183.578    22389186.829    75838330.311 9 -83364305.339 9
  24648014.353    24648014.765    14798805.031 9 -40122534.149 8
 86  6 19  4 20 35.0800000  0  3G12G13G 7
  21939330.730    21939333.914    47618335.307 9 -61137386.120 9
  22391027.970    22391030.960    75848021.307 9 -83356753.921 9
  24647883.646    24647885.152    14798117.668 9 -40123069.756 8
 86  6 19  4 20 41.0800000  0  3G12G13G 7
  21942406.857    21942409.994    47634494.330 9 -61124794.678 8
  22392873.151    22392875.178    75857713.338 9 -83349201.691 9
  24647757.255    24647757.487    14797452.954 9 -40123587.719 8
 86  6 19  4 20 47.0800000  0  3G12G13G 7
  21945484.417    21945487.604    47650670.040 9 -61112190.241 8
  22394717.062    22394719.805    75867406.501 9 -83341648.571 8
  24647634.266    24647635.800    14796809.015 9 -40124089.487 9
 86  6 19  4 20 53.0800000  0  3G12G13G 7
  21948566.375    21948568.298    47666862.437 9 -61099572.788 9
  22396562.908    22396565.068    75877100.766 9 -83334094.595 8
  24647515.744    24647517.356    14796185.891 9 -40124575.042 9
 86  6 19  4 20 59.0800000  0  3G12G13G 7
  21951650.483    21951652.970    47683071.411 8 -61086942.418 8
  22398407.384    22398409.949    75886796.003 9 -83326539.864 9
                  24647403.150                   -40125041.559 9
 86  6 19  4 21  5.0800000  0  2G12G13
  21954737.189    21954740.887    47699297.028 9 -61074299.074 9
  22400252.107    22400254.093    75896492.347 9 -83318984.272 9
 86  6 19  4 21 11.0800000  0  3G12G13G 7
  21957828.490    21957832.285    47715539.254 9 -61061642.805 9
  22402098.162    22402099.370    75906189.770 9 -83311427.844 9
  24647192.891    24647192.963    14758584.147 9 -40125897.180 9
 86  6 19  4 21 17.0800000  0  3G12G13G 7
  21960922.442    21960925.750    47731797.990 9 -61048973.666 8
  22403942.952    22403945.124    75915888.310 9 -83303870.536 8
  24647098.801    24647100.574    14758090.804 9 -40126281.595 9
 86  6 19  4 21 23.0800000  0  3G12G13G 7
  21964018.748    21964022.173    47748073.228 9 -61036291.658 9
  22405789.286    22405790.851    75925587.937 9 -83296312.390 9
  24647011.029    24647013.562    14757630.905 9 -40126639.955 9
 86  6 19  4 21 29.0800000  0  3G12G13G 7
  21967119.199    21967122.442    47764365.015 9 -61023596.752 8
  22407635.533    22407637.039    75935288.623 9 -83288753.402 9
  24646929.381    24646929.775    14757199.819 9 -40126975.874 9
 86  6 19  4 21 35.0800000  0  3G12G13G 7
  21970222.565    21970227.026    47780673.274 9 -61010889.027 8
  22409481.840    22409482.749    75944990.311 9 -83281193.648 9
  24646851.704    24646853.084    14756793.560 9 -40127292.441 9
 86  6 19  4 21 41.0800000  0  3G12G13G 7
  21973328.626    21973331.720    47796997.939 9 -60998168.513 8
  22411328.345    22411329.848    75954693.025 9 -83273633.088 8
  24646778.763    24646780.573    14756409.900 9 -40127591.389 9
 86  6 19  4 21 47.0800000  0  3G12G13G 7
  21976438.004    21976442.021    47813338.978 9 -60985435.243 8
  22413173.716    22413175.064    75964396.740 9 -83266071.751 8
  24646709.478    24646710.759    14756047.067 9 -40127874.122 9
 86  6 19  4 21 53.0800000  0  3G12G13G 7
  21979551.499    21979554.370    47829696.455 9 -60972689.146 8
  22415021.129    22415022.438    75974101.636 9 -83258509.483 8
  24646643.749    24646647.304    14755705.155 9 -40128140.541 9
 86  6 19  4 21 59.0800000  0  3G12G13G 7
  21982667.049    21982669.882    47846070.218 9 -60959930.369 8
  22416868.092    22416869.190    75983807.529 9 -83250946.460 9
                  24646586.029                   -40128387.782 8
 86  6 19  4 22  5.0800000  0  3G12G13G 7
  21985786.647    21985790.732    47862460.289 9 -60947158.893 9
  22418715.505    22418716.066    75993514.519 9 -83243382.561 8
  24646553.006    24646531.153    14718914.303 9 -40128610.263 8
 86  6 19  4 22 11.0800000  0  3G12G13G 7
  21988906.929    21988912.203    47878866.758 9 -60934374.626 8
  22420563.147    22420563.182    76003222.639 9 -83235817.788 8
  24646481.752    24646484.152    14718665.706 9 -40128803.627 9
 86  6 19  4 22 17.0800000  0  3G12G13G 7
  21992032.352    21992037.031    47895289.416 9 -60921577.750 9
  22422410.463    22422411.333    76012931.697 9 -83228252.295 8
  24646441.787    24646443.292    14718454.262 9 -40128968.380 8
 86  6 19  4 22 23.0800000  0  3G12G13G 7
  21995160.469    21995164.625    47911728.360 9 -60908768.192 8
  22424257.874    22424258.817    76022641.752 9 -83220686.009 8
  24646407.825    24646410.341    14718275.461 9 -40129107.320 7
 86  6 19  4 22 29.0800000  0  3G12G13G 7
  21998292.512    21998296.752    47928183.630 9 -60895945.895 8
  22426106.135    22426106.911    76032352.993 9 -83213118.812 9
  24646379.485    24646380.979    14718125.740 9 -40129223.979 8
 86  6 19  4 22 35.0800000  0  3G12G13G 7
  22001426.218    22001430.950    47944655.083 9 -60883111.002 8
  22427954.282    22427955.584    76042065.274 9 -83205550.800 9
  24646355.090    24646357.066    14718000.755 9 -40129321.368 9
 86  6 19  4 22 41.0800000  0  3G12G13G 7
  22004564.644    22004568.586    47961142.657 9 -60870263.541 9
  22429802.457    22429803.903    76051778.496 9 -83197982.060 9
  24646336.501    24646336.735    14717897.999 9 -40129401.436 9
 86  6 19  4 22 47.0800000  0  3G12G13G 7
  22007705.010    22007710.557    47977646.414 9 -60857403.461 9
  22431651.413    22431652.503    76061492.847 9 -83190412.427 8
  24646320.668    24646322.848    14717816.035 9 -40129465.315 9
 86  6 19  4 22 53.0800000  0  3G12G13G 7
  22010848.440    22010853.419    47994166.220 9 -60844530.898 8
  22433499.669    22433501.419    76071208.173 9 -83182842.034 8
  24646309.672    24646311.851    14717754.907 9 -40129512.945 8
 86  6 19  4 22 59.0800000  0  3G12G13G 7
  22013994.551    22014000.666    48010702.070 9 -60831645.830 8
  22435348.679    22435350.272    76080924.550 9 -83175270.832 8
                  24646304.703                   -40129541.162 8
 86  6 19  4 23  5.0800000  0  3G12G13G 7
  22017145.161    22017148.981    48027253.998 9 -60818748.213 8
  22437197.372    22437199.086    76090642.064 9 -83167698.746 8
  24646259.494    24646303.452    14681245.522 9 -40129544.418 8
 86  6 19  4 23 11.0800000  0  3G12G13G 7
  22020298.488    22020300.548    48043822.040 9 -60805838.057 8
  22439048.216    22439048.030    76100360.662 9 -83160125.797 8
  24646307.910    24646310.272    14681278.857 9 -40129518.443 8
 86  6 19  4 23 17.0800000  0  3G12G13G 7
  22023453.518    22023458.274    48060406.065 9 -60792915.441 8
  22440896.126    22440898.216    76110080.221 9 -83152552.119 8
  24646321.125    24646323.880    14681348.934 9 -40129463.835 7
 86  6 19  4 23 23.0800000  0  3G12G13G 7
  22026613.077    22026616.634    48077006.149 9 -60779980.317 8
  22442745.902    22442748.232    76119800.807 9 -83144977.645 9
  24646341.409    24646343.162    14681452.021 9 -40129383.505 9
 86  6 19  4 23 29.0800000  0  3G12G13G 7
  22029774.518    22029778.484    48093622.273 9 -60767032.679 9
  22444595.586    22444597.986    76129522.509 9 -83137402.276 9
  24646365.992    24646367.587    14681583.461 9 -40129281.096 9
 86  6 19  4 23 35.0800000  0  3G12G13G 7
  22032940.045    22032944.872    48110254.380 8 -60754072.597 8
  22446445.918    22446449.193    76139245.348 9 -83129826.026 8
  24646395.333    24646396.785    14681739.530 9 -40129159.480 9
 86  6 19  4 23 41.0800000  0  3G12G13G 7
  22036108.253    22036110.964    48126902.332 9 -60741100.174 9
  22448295.417    22448299.209    76148969.137 9 -83122249.049 9
  24646429.833    24646431.665    14681917.778 9 -40129020.585 8
 86  6 19  4 23 47.0800000  0  3G12G13G 7
  22039279.640    22039281.319    48143566.116 9 -60728115.408 8
  22450147.069    22450150.156    76158693.963 9 -83114671.263 8
  24646467.610    24646469.020    14682116.637 9 -40128865.639 9
 86  6 19  4 23 53.0800000  0  3G12G13G 7
  22042454.742    22042455.767    48160246.017 9 -60715118.090 8
  22451996.425    22452000.547    76168420.039 9 -83107092.504 8
  24646509.278    24646509.508    14682336.624 9 -40128694.222 8
 86  6 19  4 23 59.0800000  0  3G12G13G 7
  22045632.658    22045632.787    48176941.652 9 -60702108.507 9
  22453848.550    22453851.240    76178147.015 9 -83099513.035 9
  24646555.934    24646556.707    14682581.702 9 -40128503.256 8
 86  6 19  4 24  5.0800000  0  3G12G13G 7
  22048811.575    22048813.504    48193653.011 9 -60689086.672 8
  22455700.135    22455702.360    76187874.965 9 -83091932.794 9
                  24646609.659                   -40128286.961 8
 86  6 19  4 24 11.0800000  0  3G12G13G 7
  22051996.191    22051997.119    48210380.289 9 -60676052.441 9
  22457550.811    22457554.509    76197604.090 9 -83084351.667 8
  24646669.811    24646671.295    14646409.765 9 -40128041.501 9
 86  6 19  4 24 17.0800000  0  3G12G13G 7
  22055181.703    22055182.354    48227123.353 9 -60663005.892 8
  22459402.577    22459405.206    76207334.246 9 -83076769.715 8
  24646735.820    24646737.289    14646761.524 9 -40127767.423 8
 86  6 19  4 24 23.0800000  0  3G12G13G 7
  22058372.357    22058371.153    48243882.022 9 -60649947.191 8
  22461254.946    22461256.261    76217065.389 9 -83069187.015 9
  24646809.657    24646810.783    14647146.293 9 -40127467.989 9
 86  6 19  4 24 29.0800000  0  3G12G13G 7
  22061564.255    22061563.158    48260656.430 9 -60636876.219 8
  22463107.481    22463108.404    76226797.629 9 -83061603.429 8
  24646887.677    24646888.733    14647558.613 9 -40127146.702 8
 86  6 19  4 24 35.0800000  0  3G12G13G 7
  22064759.436    22064758.880    48277446.579 9 -60623792.991 7
  22464958.958    22464960.922    76236530.961 9 -83054019.011 9
  24646971.000    24646972.642    14647995.430 9 -40126806.319 9
 86  6 19  4 24 41.0800000  0  3G12G13G 7
  22067957.821    22067955.606    48294252.325 9 -60610697.609 8
  22466811.465    22466813.276    76246265.375 9 -83046433.750 9
  24647058.286    24647058.970    14648454.336 9 -40126448.748 9
 86  6 19  4 24 47.0800000  0  3G12G13G 7
  22071159.232    22071156.797    48311073.709 9 -60597590.044 8
  22468664.105    22468665.928    76256000.851 9 -83038847.651 8
  24647149.557    24647151.386    14648933.636 9 -40126075.256 8
 86  6 19  4 24 53.0800000  0  3G12G13G 7
  22074363.009    22074361.092    48327910.744 9 -60584470.270 7
  22470517.356    22470518.002    76265737.392 9 -83031260.743 9
  24647245.344    24647246.434    14649434.121 9 -40125685.259 9
 86  6 19  4 24 59.0800000  0  3G12G13G 7
  22077569.667    22077568.187    48344763.402 9 -60571338.336 8
  22472370.833    22472372.507    76275474.993 9 -83023673.003 8
                  24647347.552                   -40125275.276 8
 86  6 19  4 25  5.0800000  0  3G12G13G 7
  22080779.213    22080777.116    48361631.605 9 -60558194.291 7
  22474223.731    22474224.689    76285213.518 9 -83016084.534 8
  24647445.412    24647452.774    14613477.436 9 -40124839.819 9
 86  6 19  4 25 11.0800000  0  3G12G13G 7
  22083991.500    22083989.787    48378515.411 9 -60545038.081 8
  22476076.790    22476077.722    76294953.079 9 -83008495.271 9
  24647564.157    24647567.112    14614073.642 9 -40124375.010 8
 86  6 19  4 25 17.0800000  0  3G12G13G 7
  22087207.195    22087206.762    48395414.729 9 -60531869.789 8
  22477930.691    22477932.527    76304693.756 9 -83000905.114 9
  24647685.035    24647687.324    14614706.663 9 -40123881.724 8
 86  6 19  4 25 23.0800000  0  3G12G13G 7
  22090426.406    22090425.164    48412329.354 9 -60518689.559 7
  22479784.215    22479785.927    76314435.384 9 -82993314.234 8
  24647811.686    24647812.874    14615371.834 9 -40123363.405 9
 86  6 19  4 25 29.0800000  0  3G12G13G 7
  22093647.262    22093647.495    48429259.413 9 -60505497.311 7
  22481639.040    22481640.440    76324177.952 9 -82985722.619 9
  24647943.445    24647945.069    14616064.697 9 -40122823.510 9
 86  6 19  4 25 35.0800000  0  3G12G13G 7
  22096871.982    22096870.581    48446204.995 9 -60492292.969 7
  22483493.580    22483494.371    76333921.604 9 -82978130.140 8
  24648079.620    24648081.707    14616781.903 9 -40122264.641 8
 86  6 19  4 25 41.0800000  0  3G12G13G 7
  22100098.647    22100098.492    48463165.964 9 -60479076.629 7
  22485347.439    22485348.369    76343666.349 9 -82970536.851 8
  24648220.815    24648222.210    14617521.048 9 -40121688.684 9
 86  6 19  4 25 47.0800000  0  3G12G13G 7
  22103329.501    22103328.861    48480142.253 9 -60465848.359 7
  22487202.025    22487202.333    76353412.098 9 -82962942.757 9
  24648364.408    24648366.153    14618280.580 9 -40121096.843 8
 86  6 19  4 25 53.0800000  0  3G12G13G 7
  22106563.079    22106561.895    48497133.964 9 -60452608.070 8
  22489057.545    22489056.951    76363159.002 9 -82955347.757 9
  24648512.888    24648516.243    14619061.320 9 -40120488.470 8
 86  6 19  4 25 59.0800000  0  3G12G13G 7
  22109799.125    22109798.661    48514140.975 9 -60439355.860 8
  22490911.826    22490912.911    76372906.926 9 -82947751.973 9
                  24648669.274                   -40119859.780 8
 86  6 19  4 26  5.0800000  0  3G12G13G 7
  22113038.720    22113038.467    48531163.176 9 -60426091.812 7
  22492766.870    22492767.263    76382655.823 9 -82940155.431 8
  24648768.887    24648827.555    14583384.834 9 -40119205.365 9
 86  6 19  4 26 11.0800000  0  3G12G13G 7
  22116280.051    22116280.261    48548200.690 9 -60412815.825 7
  22494621.992    22494623.236    76392405.900 9 -82932557.973 9
  24648993.442    24648994.614    14584262.567 9 -40118521.520 9
 86  6 19  4 26 17.0800000  0  3G12G13G 7
  22119525.623    22119524.832    48565253.553 9 -60399527.881 8
  22496477.470    22496478.818    76402157.078 9 -82924959.627 9
  24649167.292    24649168.837    14585176.507 9 -40117809.338 9
 86  6 19  4 26 23.0800000  0  3G12G13G 7
  22122772.290    22122773.517    48582321.601 9 -60386228.113 8
  22498333.297    22498334.594    76411909.252 9 -82917360.547 9
  24649347.152    24649348.575    14586122.386 9 -40117072.303 8
 86  6 19  4 26 29.0800000  0  3G12G13G 7
  22126023.510    22126024.552    48599404.775 9 -60372916.561 8
  22500188.856    22500189.401    76421662.513 9 -82909760.596 9
  24649531.934    24649534.323    14587095.629 9 -40116313.927 8
 86  6 19  4 26 35.0800000  0  3G12G13G 7
  22129276.759    22129278.231    48616503.174 9 -60359593.147 8
  22502045.770    22502046.231    76431416.867 9 -82902159.790 9
  24649722.733    24649723.992    14588093.085 9 -40115536.692 9
 86  6 19  4 26 41.0800000  0  3G12G13G 7
  22132533.163    22132533.867    48633616.627 9 -60346257.984 8
  22503902.798    22503902.795    76441172.269 9 -82894558.173 8
  24649917.023    24649918.819    14589112.375 9 -40114742.438 8
 86  6 19  4 26 47.0800000  0  3G12G13G 7
  22135793.063    22135795.511    48650745.119 9 -60332911.115 7
  22505758.833    22505758.865    76450928.653 9 -82886955.808 8
  24650114.433    24650116.035    14590151.986 9 -40113932.351 8
 86  6 19  4 26 53.0800000  0  3G12G13G 7
  22139055.193    22139055.969    48667888.695 9 -60319552.492 7
  22507616.224    22507616.231    76460685.977 9 -82879352.688 8
  24650315.978    24650317.688    14591212.841 9 -40113105.714 8
 86  6 19  4 26 59.0800000  0  3G12G13G 7
  22142320.118    22142322.691    48685047.215 9 -60306182.221 7
  22509472.376    22509472.681    76470444.393 9 -82871748.724 8
                  24650525.020                   -40112258.562 8
 86  6 19  4 27  5.0800000  0  3G12G13G 7
  22145588.478    22145589.636    48702220.706 9 -60292800.292 9
  22511329.909    22511329.581    76480203.772 9 -82864144.016 8
  24650738.615    24650738.437    14555818.079 6 -40111385.379 8
 86  6 19  4 27 11.0800000  0  3G12G13G 7
  22148859.470    22148861.122    48719409.161 9 -60279406.697 8
  22513186.998    22513187.813    76489964.197 9 -82856538.474 9
  24650955.905    24650959.278    14556976.407 9 -40110482.815 8
 86  6 19  4 27 17.0800000  0  3G12G13G 7
  22152133.145    22152134.773    48736612.655 9 -60266001.376 7
  22515044.076    22515045.212    76499725.711 9 -82848932.110 8
  24651183.457    24651186.381    14558170.178 9 -40109552.218 9
 86  6 19  4 27 23.0800000  0  3G12G13G 7
  22155408.297    22155412.197    48753831.057 9 -60252584.444 9
  22516901.435    22516902.399    76509488.252 9 -82841324.923 8
  24651416.533    24651419.878    14559396.170 9 -40108596.894 8
 86  6 19  4 27 29.0800000  0  3G12G13G 7
  22158688.873    22158691.392    48771064.318 9 -60239155.925 8
  22518758.724    22518759.642    76519251.882 9 -82833716.906 8
  24651654.953    24651656.931    14560649.255 9 -40107620.477 9
 86  6 19  4 27 35.0800000  0  3G12G13G 7
  22161971.180    22161974.942    48788312.463 9 -60225715.827 8
  22520617.546    22520618.786    76529016.627 8 -82826108.017 9
  24651898.231    24651900.888    14561926.235 9 -40106625.427 9
 86  6 19  4 27 41.0800000  0  3G12G13G 7
  22165255.683    22165259.697    48805575.457 9 -60212264.132 8
  22522475.909    22522476.651    76538782.418 9 -82818498.314 8
  24652144.829    24652148.467    14563224.944 9 -40105613.449 8
 86  6 19  4 27 47.0800000  0  3G12G13G 7
  22168543.538    22168548.136    48822853.313 9 -60198800.870 8
  22524334.597    22524335.585    76548549.231 8 -82810887.802 8
  24652396.141    24652400.052    14564543.915 9 -40104585.685 8
 86  6 19  4 27 53.0800000  0  3G12G13G 7
  22171834.503    22171838.093    48840146.015 9 -60185326.045 7
  22526192.919    22526194.889    76558317.045 9 -82803276.508 9
  24652651.832    24652655.127    14565884.306 9 -40103541.229 9
